HST 1 20580U 90037B 26037.81329490 .00008603 00000+0 28897-3 0 9991 2 20580 28.4665 250.5538 0001883 124.2340 235.8434 15.28986369768582 POLAR 1 23802U 96013A 26037.09930052 .00000226 00000+0 00000+0 0 9998 2 23802 79.7044 228.5430 6337515 213.5146 82.2754 1.29845938143155 SWAS 1 25560U 98071A 26037.83786154 .00004857 00000+0 31675-3 0 9991 2 25560 69.8950 203.4136 0002728 104.8330 255.3136 15.08554549477609 CXO 1 25867U 99040B 26039.80248350 .00000763 00000+0 00000+0 0 9994 2 25867 54.0420 120.5771 8039148 310.7993 0.8658 0.37804264 16832 XMM-NEWTON 1 25989U 99066A 26039.70241284 .00000090 00000+0 00000+0 0 9998 2 25989 65.1308 284.6769 4721165 67.1530 359.9463 0.50132933 22366 TERRA 1 25994U 99068A 26038.17038218 .00000659 00000+0 14349-3 0 9993 2 25994 97.9658 92.7609 0000946 284.1599 139.5232 14.60981426390621 CLUSTER II-FM7 (SAMBA) 1 26410U 00041A 26023.07807862 .00004677 00000+0 00000+0 0 9991 2 26410 148.3592 29.7174 8835954 245.6118 359.2301 0.44786329 19664 CLUSTER II-FM8 (TANGO) 1 26464U 00045B 26019.78457485 .00005071 00000+0 00000+0 0 9998 2 26464 148.5838 29.9991 8833034 245.7591 359.3805 0.44425532 19644 ODIN 1 26702U 01007A 26038.07375140 .00046597 00000+0 67395-3 0 9994 2 26702 97.4136 72.9217 0001465 266.2522 93.8565 15.55784414369073 TIMED 1 26998U 01055B 26037.99691890 .00002628 00000+0 24424-3 0 9990 2 26998 74.0693 137.0911 0002200 310.7826 49.3167 14.94922716311367 CORIOLIS 1 27640U 03001A 26038.04651045 .00000194 00000+0 11187-3 0 9991 2 27640 98.7155 46.9061 0013249 224.7786 135.2322 14.19900117195755 SORCE 1 27651U 03004A 26038.13355750 .00004845 00000+0 36504-3 0 9997 2 27651 39.9904 283.2365 0017293 202.2186 157.7860 15.02838802252324 MOST 1 27843U 03031D 26037.97597201 .00000129 00000+0 79417-4 0 9992 2 27843 98.7078 47.5029 0008768 268.4412 91.5761 14.21290513172218 SCISAT 1 1 27858U 03036A 26038.15611522 .00001026 00000+0 13624-3 0 9991 2 27858 73.9287 69.6669 0006933 175.7443 184.3794 14.81251635212199 SWIFT 1 28485U 04047A 26037.35996732 .00069774 00000+0 93363-3 0 9993 2 28485 20.5538 105.0963 0002262 295.9659 64.0552 15.56288205166370 HINODE (SOLAR-B) 1 29479U 06041A 26038.11298721 .00001015 00000+0 18363-3 0 9992 2 29479 98.0635 56.1450 0017101 345.1459 14.9242 14.68421359 35784 SHIJIAN-6 02A (SJ-6 02A) 1 29505U 06046A 26038.20631485 .00006389 00000+0 34337-3 0 9993 2 29505 97.6547 78.3296 0002289 201.1096 159.0041 15.15244443 52578 SHIJIAN-6 02B (SJ-6 02B) 1 29506U 06046B 26038.16427706 .00003430 00000+0 27406-3 0 9991 2 29506 97.6997 68.1628 0013559 138.6068 221.6185 15.00842106 51230 FGRST (GLAST) 1 33053U 08029A 26038.08973957 .00005335 00000+0 20594-3 0 9998 2 33053 25.5835 27.2728 0008100 229.8961 130.0868 15.23082618975977 SDO 1 36395U 10005A 26033.15753127 -.00000091 00000+0 00000+0 0 9996 2 36395 34.3665 88.3951 0000722 125.3144 233.1380 1.00276361 58706 CRYOSAT 2 1 36508U 10013A 26038.16729313 .00000214 00000+0 52498-4 0 9996 2 36508 92.0221 245.8172 0002500 82.6374 277.5118 14.51904133839211 X-SAT 1 37389U 11015C 26038.20309109 .00000323 00000+0 15493-3 0 9993 2 37389 98.3384 21.5152 0014372 9.4969 350.6480 14.25159389769169 GCOM-W1 (SHIZUKU) 1 38337U 12025A 26037.83482068 .00000956 00000+0 22208-3 0 9997 2 38337 98.2274 340.3306 0001386 80.1629 338.8386 14.57136201730055 NUSTAR 1 38358U 12031A 26038.25003471 .00023633 00000+0 14605-2 0 9999 2 38358 6.0275 287.7689 0008711 327.0300 139.7807 15.07273166 1305 NEOSSAT 1 39089U 13009D 26038.10248723 .00000294 00000+0 11649-3 0 9996 2 39089 98.4108 221.2469 0009870 274.7338 85.2721 14.35768299678072 BRITE-AUSTRIA 1 39091U 13009F 26038.02621380 .00000344 00000+0 13168-3 0 9998 2 39091 98.3922 220.7054 0009066 268.6853 91.3295 14.36477382678360 IRIS 1 39197U 13033A 26038.11584825 .00002186 00000+0 25798-3 0 9992 2 39197 97.9394 237.7479 0025140 27.1659 333.0865 14.85543025681069 HISAKI (SPRINT-A) 1 39253U 13049A 26037.32795632 .00000110 00000+0 63976-4 0 9990 2 39253 29.7181 165.2985 0136812 35.8391 325.1273 13.55527625613653 CASSIOPE 1 39265U 13055A 26038.15578958 .00049663 -39089-6 61787-3 0 9992 2 39265 80.9163 223.5778 0324981 137.9456 224.7221 15.16156577647900 STSAT-3 1 39422U 13066G 26038.23339497 .00002808 00000+0 21911-3 0 9999 2 39422 97.6087 10.4538 0014549 110.0342 250.2450 15.01867396664699 SWARM B 1 39451U 13067A 26038.14443391 .00005665 00000+0 20914-3 0 9997 2 39451 87.7449 21.7459 0003047 100.0455 260.1138 15.27549685663389 SWARM A 1 39452U 13067B 26038.15316510 .00012739 00000+0 24283-3 0 9994 2 39452 87.3329 104.4622 0002888 93.7023 266.4567 15.48031481686119 SWARM C 1 39453U 13067C 26038.15306276 .00012916 00000+0 24620-3 0 9995 2 39453 87.3326 103.0451 0002884 93.0690 267.0900 15.48033586686072 BRITE-CA1 (TORONTO) 1 40020U 14033L 26038.18456081 .00001371 00000+0 21449-3 0 9993 2 40020 97.9525 169.6930 0078421 333.9798 25.7476 14.72380902623089 OCO 2 1 40059U 14035A 26038.09549222 .00000837 00000+0 19578-3 0 9993 2 40059 98.2278 341.3323 0001497 72.5523 287.5839 14.57139882617105 BRITE-PL2 (HEWELIUSZ) 1 40119U 14049B 26038.13407373 .00003441 00000+0 32756-3 0 9997 2 40119 97.8981 149.2941 0014205 175.6515 184.4830 14.94016331622023 MMS 1 1 40482U 15011A 26038.25003471 -.00001912 00000+0 00000+0 0 9999 2 40482 70.4129 350.5902 8452214 164.7202 5.2848 0.28228821 1398 MMS 2 1 40483U 15011B 26038.25003471 -.00001912 00000+0 00000+0 0 9990 2 40483 70.4095 350.5815 8453593 164.7327 5.2528 0.28237375 1392 MMS 3 1 40484U 15011C 26038.25003471 -.00001912 00000+0 00000+0 0 9991 2 40484 70.4154 350.5976 8453450 164.7320 5.2484 0.28232496 1392 MMS 4 1 40485U 15011D 26038.25003471 -.00001913 00000+0 00000+0 0 9993 2 40485 70.4163 350.5891 8454695 164.7182 5.2827 0.28233338 1394 ASTROSAT 1 40930U 15052A 26038.10744447 .00002601 00000+0 23628-3 0 9991 2 40930 5.9979 11.4876 0008263 333.3093 26.6610 14.82206137560496 DAMPE 1 41173U 15078A 26038.20123126 .00002992 00000+0 10428-3 0 9992 2 41173 97.4569 43.0580 0012114 169.2644 190.8857 15.30388076564665 PISAT 1 41784U 16059B 26037.96358468 .00001727 00000+0 30315-3 0 9993 2 41784 97.8179 44.0433 0027685 261.3097 98.4972 14.68691801500627 HXMT (HUIYAN) 1 42758U 17034A 26037.90253491 .00009087 00000+0 45674-3 0 9994 2 42758 43.0135 187.7820 0031038 37.9563 322.3465 15.17057041477863 FLYING LAPTOP 1 42831U 17042G 26038.16705409 .00002596 00000+0 21117-3 0 9999 2 42831 97.4221 199.2165 0015559 200.8678 159.1913 15.00301535466956 ZHANGHENG 1-01 (CSES-1) 1 43194U 18015C 26038.19067181 .00014208 00000+0 63820-3 0 9994 2 43194 97.6708 201.3667 0016039 8.7981 351.3532 15.21157215444887 SALSAT 1 46495U 20068K 26038.02223739 .00011294 00000+0 42137-3 0 9997 2 46495 97.8837 33.3954 0011645 46.9337 313.2873 15.27533154295478 IXPE 1 49954U 21121A 26038.16668981 .00016855 00000+0 98191-3 0 9997 2 49954 0.2298 219.9392 0007698 273.5489 321.4429 15.08795287 5863